TimeCDT,TemperatureF,Dew PointF,Humidity,Sea Level PressureIn,VisibilityMPH,Wind Direction,Wind SpeedMPH,Gust SpeedMPH,PrecipitationIn,Events,Conditions,WindDirDegrees,DateUTC
12:09 AM,62.6,59.0,88,30.05,10.0,SE,6.9,-,N/A,,Overcast,140,2013-07-30 05:09:00
12:29 AM,62.6,59.0,88,30.06,10.0,SE,6.9,-,N/A,,Overcast,140,2013-07-30 05:29:00
12:49 AM,62.6,59.0,88,30.06,10.0,SSE,5.8,-,N/A,,Overcast,150,2013-07-30 05:49:00
1:09 AM,60.8,59.0,94,30.05,10.0,SE,5.8,-,N/A,,Overcast,140,2013-07-30 06:09:00
1:29 AM,60.8,60.8,100,30.05,10.0,SE,5.8,-,N/A,,Overcast,140,2013-07-30 06:29:00
1:49 AM,60.8,60.8,100,30.05,10.0,SE,5.8,-,N/A,,Overcast,140,2013-07-30 06:49:00
2:09 AM,60.8,59.0,94,30.05,10.0,SSE,5.8,-,N/A,,Overcast,150,2013-07-30 07:09:00
2:29 AM,60.8,60.8,100,30.05,10.0,SSE,4.6,-,N/A,,Overcast,160,2013-07-30 07:29:00
2:49 AM,60.8,60.8,100,30.05,10.0,SSE,5.8,-,N/A,,Overcast,150,2013-07-30 07:49:00
3:09 AM,60.8,60.8,100,30.05,10.0,SE,4.6,-,N/A,,Overcast,140,2013-07-30 08:09:00
3:29 AM,60.8,60.8,100,30.05,10.0,SE,4.6,-,N/A,,Overcast,140,2013-07-30 08:29:00
3:49 AM,60.8,60.8,100,30.05,10.0,SE,4.6,-,N/A,,Overcast,140,2013-07-30 08:49:00
4:09 AM,60.8,60.8,100,30.05,10.0,SSE,3.5,-,N/A,,Overcast,150,2013-07-30 09:09:00
4:29 AM,60.8,60.8,100,30.05,10.0,SE,4.6,-,N/A,,Overcast,140,2013-07-30 09:29:00
4:49 AM,62.6,60.8,94,30.05,10.0,SE,3.5,-,N/A,,Overcast,140,2013-07-30 09:49:00
5:09 AM,62.6,60.8,94,30.05,10.0,SE,4.6,-,N/A,,Overcast,140,2013-07-30 10:09:00
5:29 AM,62.6,60.8,94,30.06,10.0,SSE,3.5,-,N/A,,Overcast,150,2013-07-30 10:29:00
5:49 AM,62.6,60.8,94,30.06,10.0,Calm,Calm,-,N/A,,Overcast,0,2013-07-30 10:49:00
6:09 AM,62.6,60.8,94,30.07,10.0,Calm,Calm,-,N/A,,Overcast,0,2013-07-30 11:09:00
6:29 AM,62.6,60.8,94,30.07,7.0,Calm,Calm,-,N/A,,Overcast,0,2013-07-30 11:29:00
6:49 AM,62.6,60.8,94,30.07,7.0,Calm,Calm,-,N/A,,Overcast,0,2013-07-30 11:49:00
7:09 AM,62.6,60.8,94,30.07,5.0,Calm,Calm,-,N/A,,Overcast,0,2013-07-30 12:09:00
7:29 AM,62.6,60.8,94,30.07,7.0,Calm,Calm,-,N/A,,Overcast,0,2013-07-30 12:29:00
7:49 AM,62.6,62.6,100,30.08,10.0,SSW,3.5,-,N/A,,Overcast,200,2013-07-30 12:49:00
8:09 AM,64.4,62.6,94,30.08,7.0,Calm,Calm,-,N/A,,Overcast,0,2013-07-30 13:09:00
8:29 AM,64.4,62.6,94,30.08,10.0,Calm,Calm,-,N/A,,Overcast,0,2013-07-30 13:29:00
8:49 AM,64.4,62.6,94,30.08,10.0,WNW,5.8,-,N/A,,Overcast,300,2013-07-30 13:49:00
9:09 AM,66.2,62.6,88,30.08,10.0,NW,4.6,-,N/A,,Overcast,320,2013-07-30 14:09:00
9:29 AM,66.2,62.6,88,30.09,10.0,NW,3.5,-,N/A,,Overcast,310,2013-07-30 14:29:00
9:49 AM,68.0,60.8,78,30.08,10.0,Calm,Calm,-,N/A,,Overcast,0,2013-07-30 14:49:00
10:09 AM,66.2,59.0,78,30.08,10.0,Calm,Calm,-,N/A,,Overcast,0,2013-07-30 15:09:00
10:29 AM,68.0,60.8,78,30.08,10.0,Calm,Calm,-,N/A,,Overcast,0,2013-07-30 15:29:00
10:49 AM,68.0,59.0,73,30.08,10.0,Calm,Calm,-,N/A,,Overcast,0,2013-07-30 15:49:00
11:09 AM,69.8,60.8,73,30.09,10.0,Calm,Calm,-,N/A,,Overcast,0,2013-07-30 16:09:00
11:29 AM,71.6,60.8,69,30.08,10.0,NNE,3.5,-,N/A,,Overcast,30,2013-07-30 16:29:00
11:49 AM,71.6,60.8,69,30.08,10.0,Calm,Calm,-,N/A,,Overcast,0,2013-07-30 16:49:00
12:09 PM,71.6,60.8,69,30.09,10.0,North,3.5,-,N/A,,Overcast,10,2013-07-30 17:09:00
12:29 PM,71.6,60.8,69,30.09,10.0,Calm,Calm,-,N/A,,Overcast,0,2013-07-30 17:29:00
12:49 PM,71.6,60.8,69,30.09,10.0,Calm,Calm,-,N/A,,Overcast,0,2013-07-30 17:49:00
1:09 PM,71.6,60.8,69,30.08,10.0,Calm,Calm,-,N/A,,Overcast,0,2013-07-30 18:09:00
1:29 PM,71.6,60.8,69,30.08,10.0,Calm,Calm,-,N/A,,Overcast,0,2013-07-30 18:29:00
1:49 PM,73.4,62.6,69,30.07,10.0,Calm,Calm,-,N/A,,Overcast,0,2013-07-30 18:49:00
2:09 PM,73.4,62.6,69,30.07,10.0,Calm,Calm,-,N/A,,Overcast,0,2013-07-30 19:09:00
2:29 PM,75.2,62.6,65,30.07,10.0,Calm,Calm,-,N/A,,Mostly Cloudy,0,2013-07-30 19:29:00
2:49 PM,75.2,62.6,65,30.07,10.0,West,4.6,-,N/A,,Mostly Cloudy,260,2013-07-30 19:49:00
3:09 PM,75.2,62.6,65,30.08,10.0,West,5.8,-,N/A,,Overcast,260,2013-07-30 20:09:00
3:29 PM,73.4,62.6,69,30.08,10.0,WSW,3.5,-,N/A,,Overcast,250,2013-07-30 20:29:00
3:49 PM,75.2,62.6,65,30.08,10.0,West,3.5,-,N/A,,Mostly Cloudy,260,2013-07-30 20:49:00
4:09 PM,77.0,62.6,61,30.08,10.0,NW,5.8,-,N/A,,Scattered Clouds,310,2013-07-30 21:09:00
4:29 PM,75.2,62.6,65,30.08,10.0,WNW,4.6,-,N/A,,Scattered Clouds,290,2013-07-30 21:29:00
4:49 PM,75.2,62.6,65,30.08,10.0,West,3.5,-,N/A,,Mostly Cloudy,270,2013-07-30 21:49:00
5:09 PM,75.2,62.6,65,30.08,10.0,Calm,Calm,-,N/A,,Mostly Cloudy,0,2013-07-30 22:09:00
5:29 PM,75.2,62.6,65,30.07,10.0,Calm,Calm,-,N/A,,Scattered Clouds,0,2013-07-30 22:29:00
5:49 PM,75.2,62.6,65,30.07,10.0,Calm,Calm,-,N/A,,Clear,0,2013-07-30 22:49:00
6:09 PM,75.2,64.4,69,30.05,10.0,Calm,Calm,-,N/A,,Clear,0,2013-07-30 23:09:00
6:29 PM,73.4,64.4,73,30.05,10.0,SSW,4.6,-,N/A,,Clear,210,2013-07-30 23:29:00
6:49 PM,71.6,64.4,78,30.03,10.0,South,6.9,-,N/A,,Clear,170,2013-07-30 23:49:00
7:09 PM,71.6,62.6,73,30.04,10.0,Calm,Calm,-,N/A,,Clear,0,2013-07-31 00:09:00
7:29 PM,71.6,64.4,78,30.06,10.0,Calm,Calm,-,N/A,,Scattered Clouds,0,2013-07-31 00:29:00
7:49 PM,71.6,64.4,78,30.05,10.0,Calm,Calm,-,N/A,,Mostly Cloudy,0,2013-07-31 00:49:00
8:09 PM,71.6,66.2,83,30.04,10.0,Calm,Calm,-,N/A,,Scattered Clouds,0,2013-07-31 01:09:00
8:29 PM,69.8,66.2,88,30.04,10.0,Calm,Calm,-,N/A,,Clear,0,2013-07-31 01:29:00
8:49 PM,69.8,64.4,83,30.04,10.0,Calm,Calm,-,N/A,,Clear,0,2013-07-31 01:49:00
9:09 PM,66.2,62.6,88,30.06,10.0,South,4.6,-,N/A,,Clear,190,2013-07-31 02:09:00
9:29 PM,66.2,62.6,88,30.06,10.0,SSW,3.5,-,N/A,,Clear,200,2013-07-31 02:29:00
9:49 PM,64.4,62.6,94,30.07,10.0,SSW,3.5,-,N/A,,Clear,200,2013-07-31 02:49:00
10:09 PM,64.4,62.6,94,30.07,10.0,SSW,3.5,-,N/A,,Clear,200,2013-07-31 03:09:00
10:29 PM,64.4,62.6,94,30.07,10.0,Calm,Calm,-,N/A,,Clear,0,2013-07-31 03:29:00
10:49 PM,64.4,62.6,94,30.07,10.0,Calm,Calm,-,N/A,,Clear,0,2013-07-31 03:49:00
11:09 PM,62.6,62.6,100,30.07,10.0,Calm,Calm,-,N/A,,Clear,0,2013-07-31 04:09:00
11:29 PM,62.6,62.6,100,30.07,7.0,Calm,Calm,-,N/A,,Clear,0,2013-07-31 04:29:00
11:49 PM,62.6,62.6,100,30.07,10.0,WSW,3.5,-,N/A,,Clear,250,2013-07-31 04:49:00